Weather observations for the past three days for
Pecos, Pecos Municipal Airport
Imperial (Metric)
Date Time (cdt) Wind (mph) Vis. (mi.) Weather Sky Cond. Temperature (ºF) Relative Humidity Wind Chill (°F) Heat Index (°F) Pressure Precipitation (in)
Air Dwpt 6 hour altimeter (in) sea level (mb) 1 hr 3 hr 6 hr
Max. Min.
18 08:15 NW 6 10.00 Partly Cloudy SCT075 SCT085 77.2 60.8 57% 79 30.18 0.0
18 07:55 W 5 10.00 Mostly Cloudy SCT070 BKN085 76.5 61.5 60% 78 30.18 0.0
18 07:35 N 7 10.00 Partly Cloudy SCT070 76.1 61.9 62% 78 30.17 0.0
18 07:15 N 7 10.00 Fair CLR 75.7 61.9 62% 78 30.16 0.0
18 06:55 N 7 10.00 Fair CLR 75.9 61.9 85.1 75.9 62% 78 30.16 0.0
18 06:35 N 13 G 16 10.00 Partly Cloudy SCT085 76.1 61.9 62% 78 30.15 0.0
18 06:15 N 12 G 25 10.00 Fair CLR 76.3 61.7 61% 78 30.15 0.0
18 05:55 N 15 G 22 10.00 Fair CLR 76.6 61.7 60% 78 30.15 0.0
18 05:35 N 13 G 21 10.00 Fair CLR 77 61.7 59% 79 30.15 0.0
18 05:15 N 14 10.00 Fair CLR 77.2 61.7 59% 79 30.15 0.0
18 04:55 N 16 G 22 10.00 Fair CLR 77.5 61.3 58% 79 30.15 0.0
18 04:35 N 14 G 24 10.00 Fair CLR 78.1 61.3 57% 80 30.15 0.0
18 04:15 N 16 G 24 10.00 Partly Cloudy SCT090 79.9 60.8 52% 81 30.15 0.0
18 03:55 N 14 G 23 10.00 Mostly Cloudy BKN090 BKN110 81.9 59.9 47% 82 30.14 0.0
18 03:35 N 10 10.00 Overcast BKN090 OVC120 83.3 61.7 48% 84 30.14 0.0
18 03:15 N 10 10.00 Mostly Cloudy BKN120 82.9 59.4 45% 83 30.13 0.0
18 02:55 NE 9 10.00 Fair CLR 83.3 58.6 43% 83 30.11 0.0
18 02:35 E 12 10.00 Fair CLR 83.7 59 43% 83 30.11 0.0
18 02:15 E 12 10.00 Fair CLR 84.2 58.6 42% 84 30.11 0.0
18 01:55 E 13 10.00 Fair CLR 84.6 58.3 41% 84 30.11 0.0
18 01:35 E 14 10.00 Fair CLR 84.7 58.1 40% 84 30.1 0.0
18 01:15 E 12 10.00 Fair CLR 84.9 57.6 39% 84 30.11 0.0
18 00:55 E 13 G 18 10.00 Fair CLR 85.1 56.8 99.7 85.1 38% 84 30.11 0.0
18 00:35 E 16 10.00 Fair CLR 85.3 55.6 36% 84 30.1 0.0
18 00:15 E 13 10.00 Fair CLR 85.6 53.8 34% 84 30.1 0.0
17 23:55 E 13 G 21 10.00 Fair CLR 86.2 53.4 33% 84 30.09 0.0
17 23:35 E 15 10.00 Fair CLR 86.9 52.2 30% 85 30.09 0.0
17 23:15 E 21 G 30 10.00 Fair and Breezy CLR 88.2 53.1 30% 86 30.07 0.0
17 22:55 E 13 10.00 Fair CLR 87.4 55 33% 86 30.06 0.0
17 22:35 E 10 10.00 Fair CLR 87.6 55.4 33% 86 30.05 0.0
17 22:15 E 10 10.00 Fair CLR 88.2 55.6 33% 86 30.04 0.0
17 21:55 E 16 G 22 10.00 Partly Cloudy SCT037 SCT044 89.8 55 31% 88 30.04 0.0
17 21:35 E 22 G 26 10.00 Mostly Cloudy and Breezy SCT023 SCT028 BKN035 91.8 54.5 28% 90 30.03 0.0
17 21:15 E 22 10.00 Partly Cloudy and Breezy SCT022 SCT031 92.8 53.6 26% 90 30.02 0.0
17 20:55 E 15 10.00 Fair CLR 95 46.9 19% 91 30.01 0.0
17 20:35 E 13 G 22 10.00 Fair CLR 96.3 47.3 19% 93 30 0.0
17 20:15 E 13 10.00 Fair CLR 97.3 46.6 18% 94 30 0.0
17 19:55 E 16 10.00 Fair CLR 98.4 45.7 16% 94 30 0.0
17 19:35 E 15 10.00 Fair CLR 99 45.1 16% 95 29.99 0.0
17 19:15 E 14 10.00 Fair CLR 99.3 44.6 15% 95 29.98 0.0
17 18:55 E 17 G 22 10.00 Fair CLR 99.7 45.3 101.3 94.5 16% 96 29.98 0.0
17 18:35 E 16 G 22 10.00 Fair CLR 100.4 46.9 16% 97 29.97 0.0
17 18:15 E 10 G 18 10.00 Fair CLR 100.4 44.6 15% 96 29.97 0.0
17 17:55 E 12 G 17 10.00 Fair CLR 100.8 46.2 16% 97 29.97 0.0
17 17:35 SE 12 G 18 10.00 Fair CLR 100.8 46.9 16% 97 29.97 0.0
17 17:15 E 16 G 23 10.00 Fair CLR 99.9 47.3 17% 96 29.98 0.0
17 16:55 E 14 G 20 10.00 Fair CLR 99.9 48.4 17% 96 29.98 0.0
17 16:35 E 16 G 22 10.00 Fair CLR 100.6 47.7 17% 97 29.99 0.0
17 16:15 E 13 10.00 Fair CLR 100.9 47.3 16% 97 30 0.0
17 15:55 E 17 G 21 10.00 Fair CLR 99.7 47.8 17% 96 30.01 0.0
17 15:35 E 14 G 24 10.00 Fair CLR 99.3 46.9 17% 96 30.02 0.0
17 15:15 E 13 G 21 10.00 Fair CLR 99.1 49.5 19% 96 30.03 0.0
17 14:55 E 16 G 23 10.00 Fair CLR 97.9 50.4 20% 95 30.04 0.0
17 14:35 E 17 G 21 10.00 Fair CLR 97.9 50.4 20% 95 30.04 0.0
17 14:15 E 10 G 21 10.00 Fair CLR 97.9 49.5 19% 95 30.05 0.0
17 13:55 E 10 G 21 10.00 Fair CLR 97.2 50.9 21% 94 30.05 0.0
17 13:35 E 13 G 17 10.00 Fair CLR 96.4 53.8 24% 94 30.06 0.0
17 13:15 E 10 10.00 Fair CLR 95.7 56.1 27% 94 30.06 0.0
17 12:55 E 12 G 17 10.00 Fair CLR 93.4 57.9 94.1 74.8 30% 92 30.07 0.0
17 12:35 NE 12 G 20 10.00 Fair CLR 92.7 55.8 29% 91 30.07 0.0
17 12:15 NE 12 G 18 10.00 Fair CLR 92.3 60.3 34% 92 30.06 0.0
17 11:55 E 9 G 18 10.00 Fair CLR 90.5 60.4 37% 90 30.07 0.0
17 11:35 NE 10 10.00 Fair CLR 89.6 60.4 38% 89 30.07 0.0
17 11:15 E 7 10.00 Fair CLR 89.1 60.3 38% 89 30.07 0.0
17 10:55 NE 7 10.00 Fair CLR 88 60.1 39% 88 30.06 0.0
17 10:35 E 6 10.00 Fair CLR 87.4 60.1 40% 87 30.06 0.0
17 10:15 E 6 10.00 Fair CLR 85.3 60.1 43% 85 30.05 0.0
17 09:55 SE 7 10.00 Fair CLR 84 60.1 44% 84 30.06 0.0
17 09:35 E 9 10.00 Fair CLR 81.9 60.3 48% 82 30.06 0.0
17 09:15 E 10 10.00 Fair CLR 81 60.3 49% 82 30.06 0.0
17 08:55 E 10 10.00 Fair CLR 79.7 60.3 52% 81 30.05 0.0
17 08:35 E 10 10.00 Fair CLR 78.8 60.1 53% 80 30.05 0.0
17 08:15 E 9 10.00 Fair CLR 77.4 60.1 55% 79 30.05 0.0
17 07:55 E 8 10.00 Fair CLR 76.1 59.9 57% 78 30.05 0.0
17 07:35 E 8 10.00 Fair CLR 75.2 59.9 59% 78 30.03 0.0
17 07:15 E 10 10.00 Fair CLR 75 59.4 58% 77 30.03 0.0
17 06:55 NE 9 10.00 Fair CLR 75.2 59 86 75.2 57% 78 30.03 0.0
17 06:35 E 7 10.00 Fair CLR 75.7 58.6 56% 78 30.02 0.0
17 06:15 E 9 10.00 Fair CLR 76.3 58.3 54% 78 30 0.0
17 05:55 E 8 10.00 Fair CLR 76.8 58.3 53% 79 30 0.0
17 05:35 E 8 10.00 Fair CLR 77.2 58.5 53% 79 29.99 0.0
17 05:15 E 9 10.00 Fair CLR 77.9 59.2 53% 79 29.99 0.0
17 04:55 E 9 10.00 Fair CLR 78.1 60.1 54% 79 29.98 0.0
17 04:35 E 9 10.00 Fair CLR 78.8 59.9 52% 80 29.98 0.0
17 04:15 E 8 10.00 Fair CLR 79 60.8 54% 80 29.98 0.0
17 03:55 E 7 10.00 Fair CLR 80.2 61.2 52% 81 29.98 0.0
17 03:35 SE 8 10.00 Fair CLR 80.8 62.1 53% 82 29.97 0.0
17 03:15 SE 8 10.00 Fair CLR 81.3 61.9 52% 82 29.97 0.0
17 02:55 SE 10 10.00 Fair CLR 81.9 61.5 50% 83 29.98 0.0
17 02:35 SE 10 10.00 Fair CLR 82.6 61.2 48% 83 29.98 0.0
17 02:15 SE 10 10.00 Fair CLR 83.3 61.2 47% 84 29.98 0.0
17 01:55 SE 10 10.00 Fair CLR 84.2 61 46% 84 29.98 0.0
17 01:35 SE 10 10.00 Fair CLR 84.4 59.7 43% 84 29.98 0.0
17 01:15 SE 12 10.00 Fair CLR 85.3 58.5 40% 85 29.98 0.0
17 00:55 SE 12 10.00 Fair CLR 86.2 57.4 100.6 86 38% 85 29.97 0.0
17 00:35 SE 14 G 21 10.00 Fair CLR 86.9 56.1 35% 85 29.97 0.0
17 00:15 SE 14 10.00 Fair CLR 87.6 55.2 33% 86 29.97 0.0
16 23:55 SE 21 G 25 10.00 Fair and Breezy CLR 88.7 54.3 31% 87 29.96 0.0
16 23:35 SE 17 G 25 10.00 Fair CLR 89.4 54 30% 87 29.95 0.0
16 23:15 SE 15 G 21 10.00 Fair CLR 90 54.3 30% 88 29.95 0.0
16 22:55 SE 16 G 21 10.00 Fair CLR 90.7 53.6 28% 88 29.94 0.0
16 22:35 E 9 10.00 Fair CLR 90.5 51.1 26% 88 29.93 0.0
16 22:15 E 10 10.00 Fair CLR 91.6 51.1 25% 89 29.93 0.0
16 21:55 E 12 10.00 Fair CLR 92.7 50.9 24% 90 29.92 0.0
16 21:35 E 14 10.00 Fair CLR 93.6 50.9 23% 91 29.91 0.0
16 21:15 E 14 10.00 Fair CLR 94.5 50.9 23% 91 29.91 0.0
16 20:55 E 14 G 20 10.00 Fair CLR 95.7 51.1 22% 93 29.9 0.0
16 20:35 E 15 10.00 Fair CLR 97 51.3 21% 94 29.89 0.0
16 20:15 E 15 10.00 Fair CLR 98.1 51.1 20% 95 29.88 0.0
16 19:55 E 14 10.00 Fair CLR 99 51.4 20% 96 29.88 0.0
16 19:35 E 18 G 23 10.00 Fair CLR 99.5 50.9 19% 97 29.88 0.0
16 19:15 E 12 G 17 10.00 Partly Cloudy SCT110 99.5 51.3 20% 97 29.88 0.0
16 18:55 E 12 G 21 10.00 Partly Cloudy SCT110 100.9 51.4 102.6 95 19% 98 29.88 0.0
16 18:35 E 7 G 18 10.00 Partly Cloudy SCT110 100.9 52.2 19% 98 29.88 0.0
16 18:15 E 12 G 22 10.00 Partly Cloudy SCT110 101.7 51.8 19% 99 29.89 0.0
16 17:55 E 10 G 20 10.00 Partly Cloudy SCT110 101.7 51.1 18% 99 29.89 0.0
16 17:35 E 8 G 20 10.00 Mostly Cloudy BKN110 101.7 51.1 18% 99 29.9 0.0
16 17:15 E 12 G 17 10.00 Fair CLR 102.2 51.4 18% 100 29.91 0.0
16 16:55 SE 12 G 17 10.00 Fair CLR 102 50.9 18% 99 29.91 0.0
16 16:35 E 14 G 17 10.00 Fair CLR 101.3 50.9 18% 98 29.92 0.0
16 16:15 SE 14 G 18 10.00 Fair CLR 102 50.9 18% 99 29.92 0.0
16 15:55 SE 7 G 17 10.00 Fair CLR 100.6 52 20% 98 29.93 0.0
16 15:35 E 10 G 18 10.00 Fair CLR 100.4 50.5 19% 97 29.94 0.0
16 15:15 NE 5 G 16 10.00 Fair CLR 99.1 51.8 20% 96 29.95 0.0
16 14:55 SE 8 10.00 Fair CLR 100.4 52.2 20% 98 29.95 0.0
16 14:35 E 16 G 20 10.00 Fair CLR 99.1 49.6 19% 96 29.96 0.0
16 14:15 E 5 G 22 10.00 Fair CLR 98.6 50.5 20% 96 29.97 0.0
16 13:55 E 7 G 17 10.00 Fair CLR 97.9 49.8 20% 95 29.97 0.0
16 13:35 E 5 10.00 Fair CLR 96.8 50.7 21% 94 29.98 0.0
16 13:15 SE 8 10.00 Fair CLR 96.4 51.8 22% 94 29.99 0.0
16 12:55 E 6 10.00 Fair CLR 94.3 51.6 95.4 69.8 24% 91 29.99 0.0
16 12:35 E 5 10.00 Fair CLR 94.8 52.3 24% 92 30 0.0
16 12:15 SE 3 10.00 Fair CLR 93.2 53.8 26% 91 30 0.0
16 11:55 Calm 10.00 Fair CLR 90.5 54.5 29% 88 30 0.0
16 11:35 Calm 10.00 Fair CLR 89.6 55.4 31% 88 30 0.0
16 11:15 SE 5 10.00 Fair CLR 89.4 55.9 32% 88 30 0.0
16 10:55 E 3 10.00 Fair CLR 88.5 56.3 34% 87 30 0.0
16 10:35 SE 3 10.00 Fair CLR 86.7 56.3 36% 85 30 0.0
16 10:15 Calm 10.00 Fair CLR 85.3 56.5 37% 84 30.01 0.0
16 09:55 E 7 10.00 Fair CLR 83.5 56.5 40% 83 30.02 0.0
16 09:35 E 5 10.00 Fair CLR 81.5 55.9 42% 81 30.02 0.0
16 09:15 Calm 10.00 Fair CLR 79.2 56.3 46% 80 30.02 0.0
16 08:55 S 5 10.00 Fair CLR 77.9 56.1 47% 79 30.01 0.0
16 08:35 SE 6 10.00 Fair CLR 75.7 55.9 50% 78 30 0.0
16 08:15 SE 6 10.00 Fair CLR 74.3 55.8 53% 30 0.0
16 07:55 SE 5 10.00 Fair CLR 72.1 55.2 55% 29.99 0.0
16 07:35 E 8 10.00 Fair CLR 70.7 54.9 57% 29.99 0.0
16 07:15 E 3 10.00 Fair CLR 70.2 54 57% 29.98 0.0
16 06:55 E 3 10.00 Fair CLR 70.2 54.1 80.6 70.2 57% 29.98 0.0
16 06:35 Calm 10.00 Fair CLR 70.7 54.5 57% 29.98 0.0
16 06:15 E 3 10.00 Fair CLR 71.1 54 55% 29.97 0.0
16 05:55 E 5 10.00 Fair CLR 72 54.1 54% 29.97 0.0
16 05:35 E 3 10.00 Fair CLR 72.7 54 52% 29.97 0.0
16 05:15 Calm 10.00 Fair CLR 73.9 54.5 51% 29.96 0.0
16 04:55 Calm 10.00 Fair CLR 74.1 54.5 50% 29.96 0.0
16 04:35 E 5 10.00 Fair CLR 74.7 55.4 51% 29.96 0.0
16 04:15 E 8 10.00 Fair CLR 74.3 55.4 52% 29.96 0.0
16 03:55 E 6 10.00 Fair CLR 74.7 55 51% 29.96 0.0
16 03:35 NE 6 10.00 Fair CLR 76.1 55.6 49% 78 29.96 0.0
16 03:15 E 5 10.00 Fair CLR 77 55.8 48% 79 29.97 0.0
16 02:55 Calm 10.00 Fair CLR 77 56.3 49% 79 29.97 0.0
16 02:35 Calm 10.00 Fair CLR 77.9 55.6 46% 79 29.98 0.0
16 02:15 Calm 10.00 Fair CLR 77.9 55.2 46% 79 29.98 0.0
16 01:55 Calm 10.00 Fair CLR 78.3 55.4 45% 79 29.98 0.0
16 01:35 E 5 10.00 Fair CLR 79.3 55.8 44% 80 29.98 0.0
16 01:15 E 7 10.00 Fair CLR 79.9 56.3 44% 80 29.98 0.0
16 00:55 E 5 10.00 Fair CLR 80.8 56.3 100.4 80.8 43% 81 29.98 0.0
16 00:35 SE 6 10.00 Fair CLR 82.8 57.2 42% 82 29.99 0.0
16 00:15 SE 7 10.00 Fair CLR 84.2 57.2 40% 83 29.98 0.0
15 23:55 SE 7 10.00 Fair CLR 85.6 57.6 39% 85 29.98 0.0
15 23:35 SE 9 10.00 Fair CLR 86.5 57.7 38% 86 29.98 0.0
15 23:15 S 9 10.00 Fair CLR 87.3 58.1 37% 86 29.98 0.0
15 22:55 S 10 10.00 Fair CLR 87.8 58.3 37% 87 29.97 0.0
15 22:35 S 13 10.00 Fair CLR 88.5 58.6 37% 88 29.96 0.0
15 22:15 S 12 10.00 Fair CLR 89.1 59 36% 88 29.95 0.0
15 21:55 S 16 G 23 10.00 Fair CLR 90.1 59 35% 89 29.95 0.0
15 21:35 S 18 G 29 10.00 Fair CLR 91.6 59 34% 91 29.94 0.0
15 21:15 SE 13 10.00 Fair CLR 94.1 53.2 25% 92 29.93 0.0
15 20:55 SE 13 G 16 10.00 Fair CLR 94.8 53.2 25% 92 29.92 0.0
15 20:35 SE 15 G 18 10.00 Fair CLR 96.3 53.2 23% 94 29.91 0.0
15 19:55 E 20 G 23 10.00 Fair CLR 98.1 52.7 22% 96 29.9 0.0
15 19:35 E 16 G 24 10.00 Fair CLR 99.1 52.3 21% 97 29.9 0.0
15 19:15 E 15 G 23 10.00 Fair CLR 99.7 52.2 20% 97 29.9 0.0
15 18:55 E 9 G 18 10.00 Fair CLR 100.2 52 102.6 93.4 20% 98 29.9 0.0
15 18:35 E 13 G 16 10.00 Fair CLR 99.5 52 20% 97 29.9 0.0
15 18:15 NE 13 G 18 10.00 Fair CLR 100.6 52.2 20% 98 29.9 0.0
15 17:55 SE 7 10.00 Fair CLR 101.3 52 19% 99 29.91 0.0
15 17:35 E 14 G 21 10.00 Partly Cloudy SCT110 100.8 52.7 20% 98 29.92 0.0
15 17:15 E 15 G 23 10.00 Partly Cloudy SCT110 102.4 52.2 19% 100 29.93 0.0
15 16:55 E 6 10.00 Partly Cloudy SCT110 101.1 50 18% 98 29.93 0.0
15 16:35 SE 13 G 16 10.00 Partly Cloudy SCT110 101.1 51.1 19% 98 29.94 0.0
15 16:15 S 12 G 16 10.00 Partly Cloudy SCT100 101.3 51.3 19% 99 29.95 0.0
15 15:55 E 6 10.00 Fair CLR 99.3 50.7 19% 96 29.96 0.0
15 15:35 Calm 10.00 Fair CLR 99.1 51.8 20% 96 29.97 0.0
15 15:15 NE 8 G 23 10.00 Fair CLR 100.4 52.2 20% 98 29.98 0.0
15 14:55 SE 5 10.00 Partly Cloudy SCT095 98.2 53.6 22% 96 29.99 0.0
15 14:35 SE 9 G 16 10.00 Fair CLR 98.8 55.2 23% 97 30 0.0
15 14:15 E 8 10.00 Fair CLR 98.1 54.9 24% 96 30.02 0.0
15 13:55 SW 5 G 16 10.00 Fair CLR 96.4 54.9 25% 95 30.02 0.0
15 13:35 E 7 10.00 Fair CLR 95.5 56.3 27% 94 30.03 0.0
15 13:15 Calm 10.00 Fair CLR 93.9 57.2 29% 93 30.04 0.0
15 12:55 E 7 10.00 Fair CLR 94.8 57.2 94.8 72.5 28% 94 30.04 0.0
15 12:35 E 6 10.00 Fair CLR 94.3 57.4 29% 93 30.05 0.0
15 12:15 SE 3 10.00 Fair CLR 93.6 58.1 30% 93 30.06 0.0
15 11:55 Calm 10.00 Fair CLR 91.8 58.1 32% 91 30.06 0.0
15 11:35 Calm 10.00 Fair CLR 90.3 57.9 34% 89 30.07 0.0
15 11:15 Calm 10.00 Fair CLR 89.1 58.3 35% 88 30.07 0.0
15 10:55 NE 3 10.00 Fair CLR 88.3 59.4 38% 88 30.08 0.0
15 10:35 Calm 10.00 Fair CLR 87.3 59.7 40% 87 30.09 0.0
15 10:15 Calm 10.00 Fair CLR 86 60.4 42% 86 30.09 0.0
15 09:55 SE 3 10.00 Fair CLR 84.9 60.8 44% 85 30.09 0.0
15 09:35 Calm 10.00 Fair CLR 82.9 61.5 48% 84 30.09 0.0
15 09:15 Calm 10.00 Fair CLR 81.3 61 50% 82 30.09 0.0
15 08:55 Calm 10.00 Fair CLR 78.6 61 55% 80 30.09 0.0
15 08:35 Calm 10.00 Fair CLR 77 61.2 58% 79 30.09 0.0
Date Time (cdt) Wind (mph) Vis. (mi.) Weather Sky Cond. Air Dwpt Max. Min. Relative Humidity Wind Chill (°F) Heat Index (°F) altimeter (in) sea level (mb) 1 hr 3 hr 6 hr
6 hour
Temperature (ºF) Pressure Precipitation (in)